Wind_Speed
47 47 47 47 47 47 47 47 46 46 45 45 45 44 43 42 41 42 41 40 39 38 37 37 37 36 36 35 35 35 34 34 33 33 33 33 33 33 34 34 34 34 35
50 50 50 50 50 49 49 49 49 49 48 47 47 47 46 45 44 44 43 42 41 40 40 38 39 39 38 38 38 37 36 36 36 35 35 35 35 35 35 35 36 36 36
51 52 52 52 53 52 52 52 52 52 51 50 50 50 48 47 46 46 45 45 44 43 42 41 40 40 40 39 40 39 38 38 38 37 37 37 36 36 36 36 37 37 38
53 54 54 54 54 54 54 54 54 54 53 52 52 52 51 50 49 49 48 47 46 45 44 43 43 43 42 41 41 40 40 39 39 39 38 38 38 37 37 37 37 38 39
56 56 56 56 57 56 56 56 56 56 55 55 54 54 53 52 51 51 51 50 48 47 46 45 44 44 44 42 42 41 41 40 41 40 40 40 39 39 38 39 39 39 40
57 58 58 58 58 58 58 58 58 58 58 57 57 56 56 55 54 53 53 53 51 50 49 48 46 46 45 44 43 42 42 42 42 42 42 41 41 40 40 40 40 40 41
58 59 59 59 60 61 61 61 61 61 61 60 59 58 58 57 57 55 55 54 53 52 51 50 49 48 47 47 45 44 44 43 43 44 43 43 41 40 41 41 41 42 43
58 59 61 62 62 63 63 63 63 63 62 61 60 60 59 59 59 57 56 56 55 54 52 51 51 50 49 48 46 46 45 45 45 45 44 44 43 41 42 42 42 43 43
59 60 62 63 63 64 64 64 64 63 62 62 61 61 61 60 60 58 57 57 56 55 54 53 52 50 48 47 46 46 46 46 46 45 45 45 44 43 42 42 43 43 44
60 61 62 63 64 65 64 63 63 63 63 63 62 61 62 61 60 58 57 57 57 56 55 53 52 50 49 48 47 47 47 46 45 45 46 45 44 44 44 43 44 44 44
61 61 62 63 63 64 64 63 63 63 63 63 63 62 61 61 60 59 57 56 56 56 55 54 52 50 50 49 48 49 48 46 45 45 45 45 44 44 44 44 44 44 43
62 61 62 62 62 62 62 62 62 61 60 61 61 61 61 60 58 57 57 56 56 56 56 54 52 49 49 49 48 48 47 46 46 45 45 45 45 44 45 44 44 44 43
61 61 61 61 61 61 61 61 60 59 58 58 57 58 58 59 57 57 57 56 55 55 56 54 51 49 48 48 48 48 48 47 47 46 45 45 45 45 44 43 44 43 43
58 59 59 58 58 58 58 58 57 56 56 56 55 55 55 56 56 56 56 54 53 53 53 52 51 50 48 47 47 47 46 46 46 46 46 45 45 43 43 42 43 43 43
57 56 55 54 54 55 55 54 54 54 54 53 53 53 53 53 54 54 53 53 53 53 52 51 50 49 48 46 45 45 45 45 45 45 46 45 44 42 42 41 41 41 43
54 52 51 50 49 49 50 50 50 51 50 50 50 50 51 50 51 51 50 50 50 50 51 50 49 47 46 45 45 45 44 44 44 45 45 44 43 42 42 40 40 41 42
51 49 47 46 45 45 46 47 47 48 47 46 47 46 46 48 49 49 49 49 48 48 49 47 48 46 44 43 44 44 44 43 43 43 43 42 40 41 41 39 39 40 42
48 47 45 44 43 43 43 43 44 45 46 45 44 43 43 45 47 47 47 47 46 45 45 45 45 44 43 42 43 42 42 42 41 40 40 39 39 39 39 38 38 39 41
45 44 43 42 41 41 41 41 41 42 43 43 42 41 41 43 44 45 45 46 45 42 41 43 43 42 41 41 41 41 41 39 39 37 36 37 36 37 37 37 38 38 40
43 42 41 40 40 40 39 39 38 38 39 40 40 39 39 40 41 42 43 44 43 41 39 40 40 40 39 39 39 38 39 37 36 35 35 35 35 35 35 37 37 38 40
40 39 39 38 38 38 38 37 36 36 37 37 37 38 37 38 39 40 40 41 41 40 39 39 38 37 37 36 36 36 35 35 35 34 34 35 35 35 34 36 37 37 38
38 37 37 36 36 36 36 35 34 34 36 35 34 36 36 37 37 37 38 38 38 36 35 36 36 36 35 34 34 35 33 33 33 32 34 33 33 34 34 34 34 34 36
35 35 37 36 34 33 33 32 32 32 33 33 33 33 34 35 34 35 36 36 35 33 33 33 33 33 33 33 33 33 32 31 31 31 32 32 32 31 31 32 33 34 35
33 34 34 33 32 31 31 30 29 30 30 30 31 32 33 33 34 34 34 34 33 31 31 31 31 30 30 30 31 30 29 30 30 30 30 30 30 30 30 30 31 33 34
31 32 31 30 29 28 28 29 28 28 28 28 29 31 32 32 31 31 32 31 30 29 29 29 28 27 27 28 29 27 27 28 28 28 28 29 29 28 29 29 30 32 33
29 29 28 26 25 25 25 27 28 26 26 26 27 29 30 30 30 29 29 28 27 27 27 26 26 26 27 27 27 25 26 26 26 26 26 27 26 27 27 28 30 32 33
Wind_Direction
265 265 265 265 265 266 265 265 265 264 264 264 264 264 266 266 264 264 265 266 267 268 270 271 271 271 272 273 275 277 278 279 281 283 285 287 290 292 294 296 297 298 299
265 264 264 264 265 266 266 265 265 264 264 263 263 264 265 265 264 265 265 265 266 267 268 271 273 271 272 271 273 274 275 277 279 282 284 286 289 291 292 295 296 298 299
265 265 264 264 264 264 264 264 264 264 263 263 263 264 263 263 263 264 265 265 265 266 267 269 271 271 272 272 273 274 274 275 278 280 282 284 287 289 291 293 295 297 298
267 266 265 265 265 264 264 263 263 263 263 263 263 263 263 262 263 263 263 264 264 265 266 267 268 269 271 272 273 272 273 274 276 279 281 283 285 288 290 292 294 295 297
268 268 267 266 265 264 264 264 264 263 263 263 263 263 262 262 261 262 262 263 263 263 264 265 266 268 270 271 272 272 272 274 276 278 280 282 284 286 289 291 293 294 297
270 269 268 267 266 265 265 265 265 264 264 263 262 262 262 262 262 262 262 262 262 263 263 264 264 266 268 269 270 271 273 274 276 278 279 281 283 285 287 289 291 294 296
270 270 269 268 266 266 265 266 265 265 264 264 263 262 261 262 261 261 262 261 261 261 262 262 263 263 266 268 269 271 272 274 276 277 278 280 282 283 286 288 290 293 295
271 270 270 269 268 267 266 266 266 265 264 264 263 261 260 260 260 260 261 260 260 260 260 260 261 262 263 266 267 269 270 272 274 276 277 278 280 282 285 287 289 292 294
272 272 271 270 270 269 268 267 266 265 263 263 262 262 260 259 259 258 259 259 259 259 259 259 259 261 262 264 265 267 269 271 273 275 276 278 280 282 284 286 289 291 294
274 273 272 272 271 270 269 268 267 265 264 262 261 260 260 258 258 257 256 257 257 257 258 257 258 259 260 262 263 266 267 269 273 275 276 277 280 282 283 285 287 291 293
275 275 274 273 271 269 268 267 267 265 264 262 260 259 257 256 255 255 255 254 255 256 256 256 257 257 258 260 263 265 266 268 272 274 276 277 279 281 282 284 287 290 292
275 275 275 273 271 269 268 267 266 265 263 261 260 258 256 253 252 253 253 254 254 254 254 254 254 256 258 259 262 264 265 268 271 274 276 276 278 280 282 284 287 289 292
276 276 276 274 271 269 268 267 265 263 261 260 259 258 256 252 250 251 253 253 254 254 253 253 252 253 256 258 261 264 265 266 269 272 274 275 276 278 281 285 287 289 291
277 277 275 273 271 269 267 265 264 262 260 259 258 257 255 251 249 250 251 252 253 253 253 252 251 252 254 256 259 263 264 265 267 271 273 275 276 277 280 283 287 289 291
277 276 275 273 271 268 265 264 263 260 259 258 257 256 254 250 247 248 248 249 251 251 251 251 250 250 252 254 258 262 264 265 266 269 271 274 275 276 279 283 287 290 293
278 276 276 273 270 267 265 263 262 258 257 257 255 254 252 249 246 245 245 247 249 250 250 249 248 250 251 253 256 259 261 263 266 267 270 272 274 275 278 281 286 289 293
278 276 275 272 270 266 265 263 262 256 255 254 252 252 250 247 244 243 243 245 248 249 250 248 247 247 249 251 253 257 259 263 264 265 268 271 273 276 279 281 286 290 294
277 275 273 272 270 266 264 263 261 256 253 251 250 249 248 246 243 241 243 245 246 247 248 247 246 246 249 251 253 256 260 262 263 264 267 271 274 277 280 284 287 291 294
276 273 272 271 268 265 264 263 261 257 252 249 248 247 245 244 241 241 242 243 243 244 246 247 244 246 248 251 253 255 258 259 261 263 267 271 274 277 282 285 287 291 295
274 273 271 270 268 264 263 261 259 256 249 246 246 244 243 242 240 241 242 241 240 243 245 244 244 246 248 250 252 254 256 258 259 262 265 268 275 280 283 287 289 293 297
274 272 271 270 269 264 261 260 257 252 246 245 244 242 241 239 238 240 240 238 239 241 243 243 244 246 247 249 251 253 256 257 259 261 264 267 273 280 284 288 291 294 297
273 271 270 269 269 263 260 257 253 246 244 244 243 241 238 237 238 238 236 236 236 240 242 242 242 243 244 247 248 251 255 258 259 260 264 268 273 280 286 290 293 295 299
273 271 270 270 267 262 258 252 248 242 241 240 238 235 233 233 235 235 233 233 235 239 240 240 240 242 244 245 247 250 254 256 258 260 264 269 275 281 287 291 294 297 302
273 272 271 270 265 260 252 248 244 239 237 236 234 233 231 231 233 232 231 232 235 237 237 236 236 239 241 243 246 250 252 254 257 261 265 270 276 282 288 291 295 298 303
272 271 270 267 262 256 248 245 240 235 233 231 230 229 229 230 230 229 229 231 233 233 232 235 235 239 242 244 245 246 251 254 259 263 268 272 276 282 287 292 296 300 303
272 270 267 264 257 250 245 241 237 235 231 229 227 227 227 228 226 225 226 230 231 230 232 235 236 239 242 245 243 245 251 256 261 265 269 273 277 283 286 291 297 302 305
Height
5775 5776 5777 5778 5779 5779 5780 5781 5782 5783 5785 5786 5787 5788 5789 5790 5792 5793 5794 5795 5795 5796 5797 5797 5798 5798 5798 5798 5798 5797 5797 5796 5795 5794 5793 5791 5789 5787 5785 5783 5780 5778 5775
5764 5765 5766 5767 5768 5768 5769 5770 5771 5772 5774 5776 5777 5778 5779 5781 5782 5783 5785 5786 5787 5788 5789 5789 5790 5790 5790 5790 5790 5790 5790 5789 5788 5787 5786 5784 5782 5780 5778 5776 5774 5771 5768
5752 5753 5755 5756 5757 5757 5758 5759 5760 5761 5762 5764 5766 5768 5769 5771 5772 5773 5775 5776 5778 5779 5780 5781 5782 5782 5782 5782 5782 5782 5782 5781 5780 5780 5778 5777 5775 5773 5771 5769 5766 5764 5760
5739 5740 5742 5743 5744 5745 5746 5747 5748 5749 5750 5752 5754 5756 5758 5760 5761 5763 5764 5766 5768 5769 5770 5772 5773 5773 5774 5774 5774 5774 5774 5773 5773 5772 5771 5769 5768 5766 5764 5761 5759 5756 5753
5726 5727 5728 5729 5730 5731 5733 5734 5735 5736 5738 5739 5741 5744 5745 5747 5749 5751 5753 5754 5756 5758 5760 5761 5763 5764 5765 5765 5765 5765 5765 5765 5764 5763 5763 5761 5760 5758 5756 5754 5751 5748 5745
5712 5712 5713 5714 5715 5716 5718 5719 5720 5722 5724 5725 5727 5730 5732 5734 5736 5737 5740 5742 5745 5747 5749 5751 5752 5754 5755 5756 5756 5756 5756 5756 5756 5755 5754 5753 5752 5750 5748 5745 5743 5740 5737
5696 5697 5697 5698 5699 5700 5702 5703 5704 5706 5708 5709 5711 5714 5717 5719 5722 5724 5726 5729 5732 5734 5737 5739 5741 5743 5745 5746 5747 5747 5747 5747 5747 5746 5745 5744 5743 5741 5739 5737 5734 5731 5728
5681 5681 5681 5682 5682 5683 5685 5686 5687 5689 5691 5693 5695 5697 5701 5704 5707 5709 5712 5715 5718 5721 5724 5727 5729 5732 5734 5735 5737 5737 5737 5737 5737 5737 5736 5735 5734 5732 5731 5728 5725 5723 5719
5664 5664 5664 5665 5665 5665 5667 5668 5669 5671 5674 5676 5677 5680 5683 5687 5691 5695 5697 5701 5704 5707 5711 5714 5717 5720 5722 5724 5726 5727 5727 5728 5727 5727 5727 5726 5725 5723 5721 5719 5716 5713 5710
5649 5647 5647 5647 5647 5648 5648 5649 5651 5652 5655 5658 5660 5662 5665 5669 5673 5679 5683 5686 5690 5693 5697 5700 5704 5707 5711 5713 5715 5716 5717 5717 5717 5717 5717 5716 5715 5714 5712 5709 5707 5704 5701
5632 5630 5629 5629 5629 5629 5630 5631 5632 5634 5636 5639 5642 5645 5648 5652 5656 5660 5667 5672 5676 5679 5683 5687 5691 5695 5698 5701 5703 5705 5705 5706 5707 5707 5707 5707 5705 5704 5702 5700 5697 5695 5692
5615 5613 5611 5610 5610 5611 5612 5613 5614 5615 5618 5621 5624 5627 5631 5635 5641 5645 5650 5656 5661 5665 5669 5673 5677 5681 5685 5688 5691 5692 5694 5695 5696 5697 5697 5697 5695 5694 5692 5691 5688 5685 5682
5597 5595 5593 5592 5592 5593 5593 5595 5596 5598 5600 5603 5607 5610 5614 5619 5624 5630 5635 5640 5645 5650 5655 5659 5664 5668 5672 5676 5678 5681 5683 5684 5686 5686 5686 5686 5685 5684 5683 5681 5679 5676 5672
5578 5577 5576 5575 5575 5575 5576 5577 5579 5581 5584 5587 5590 5594 5598 5603 5609 5614 5620 5625 5630 5636 5641 5647 5651 5656 5660 5664 5666 5668 5671 5672 5674 5675 5676 5675 5675 5674 5673 5671 5669 5666 5663
5561 5560 5559 5559 5559 5559 5560 5561 5563 5565 5568 5572 5575 5579 5583 5588 5594 5599 5605 5610 5616 5621 5628 5634 5639 5643 5647 5651 5654 5657 5659 5661 5663 5664 5665 5665 5664 5664 5663 5661 5659 5656 5652
5545 5544 5543 5543 5544 5544 5545 5546 5548 5551 5553 5557 5560 5565 5569 5574 5580 5585 5591 5597 5602 5607 5614 5622 5627 5631 5634 5639 5642 5645 5648 5650 5652 5653 5654 5654 5654 5653 5652 5651 5649 5646 5642
5530 5529 5529 5529 5530 5531 5531 5533 5534 5537 5539 5543 5547 5551 5556 5561 5566 5573 5578 5584 5590 5595 5601 5608 5613 5618 5622 5626 5630 5633 5636 5639 5641 5642 5643 5643 5644 5643 5642 5641 5639 5636 5633
5517 5516 5516 5516 5517 5518 5519 5520 5522 5524 5526 5530 5534 5539 5544 5549 5554 5561 5567 5573 5579 5584 5589 5596 5602 5606 5611 5615 5618 5622 5626 5629 5631 5632 5633 5634 5634 5634 5633 5631 5629 5626 5623
5504 5503 5503 5504 5505 5506 5507 5508 5509 5511 5514 5518 5523 5527 5532 5537 5543 5549 5556 5562 5567 5573 5578 5584 5590 5595 5600 5604 5608 5613 5616 5619 5621 5623 5624 5625 5625 5625 5624 5622 5619 5617 5613
5491 5491 5491 5492 5493 5494 5495 5496 5498 5499 5503 5507 5512 5517 5522 5527 5533 5539 5545 5551 5557 5563 5568 5574 5579 5585 5590 5594 5599 5603 5607 5609 5612 5614 5615 5616 5616 5615 5614 5613 5610 5607 5604
5479 5479 5480 5481 5481 5482 5484 5485 5486 5489 5493 5498 5502 5507 5513 5518 5524 5530 5536 5542 5548 5554 5559 5564 5570 5575 5581 5586 5591 5595 5598 5600 5602 5604 5606 5607 5608 5607 5605 5603 5601 5598 5595
5468 5468 5469 5470 5471 5472 5473 5474 5476 5480 5485 5489 5494 5499 5504 5510 5516 5522 5528 5534 5541 5546 5552 5556 5562 5568 5573 5578 5582 5586 5589 5591 5594 5597 5597 5598 5599 5599 5597 5595 5592 5589 5585
5458 5458 5459 5459 5460 5461 5463 5465 5467 5471 5477 5482 5487 5492 5497 5503 5508 5514 5521 5527 5533 5538 5544 5549 5555 5560 5565 5569 5573 5577 5580 5583 5586 5588 5589 5590 5590 5590 5588 5586 5583 5580 5577
5448 5449 5449 5450 5450 5452 5454 5457 5459 5464 5469 5474 5480 5485 5491 5496 5502 5508 5514 5520 5526 5532 5537 5542 5547 5552 5556 5560 5564 5568 5571 5575 5578 5580 5581 5582 5582 5581 5580 5577 5575 5572 5568
5440 5440 5441 5441 5442 5444 5446 5449 5453 5457 5462 5468 5473 5478 5484 5490 5496 5502 5508 5514 5520 5525 5530 5535 5539 5543 5548 5552 5556 5560 5563 5566 5569 5571 5572 5573 5573 5573 5571 5569 5566 5564 5560
5432 5432 5433 5434 5435 5438 5440 5443 5448 5452 5457 5462 5467 5473 5478 5484 5490 5496 5502 5508 5514 5519 5524 5528 5533 5537 5541 5545 5549 5552 5556 5559 5562 5563 5565 5565 5565 5564 5563 5562 5559 5556 5552